Regional Weather Roundup
Issued by NWS

Home | Current Version | Previous Version | Graphics & Text | Print | Product List | Glossary On
Versions: 1 2 3 4 5 6 7 8 9 10 11 12 13 14 15 16 17 18 19 20 21 22 23 24 25 26 27 28
000
ASUS45 KCYS 252210
RWRWY

WYOMING REGIONAL WEATHER ROUNDUP
NATIONAL WEATHER SERVICE CHEYENNE WY
400 PM MDT WED APR 25 2018

NOTE:  "FAIR" INDICATES FEW OR NO CLOUDS BELOW 12,000 FEET
WITH NO SIGNIFICANT WEATHER AND/OR OBSTRUCTIONS TO VISIBILITY.

WYZ001-252300-
YELLOWSTONE NATIONAL PARK

CITY           SKY/WX    TMP DP  RH WIND       PRES   REMARKS
LK YELLOWSTONE   N/A     49  15  25 W8G17     30.19F
W YELLOWSTONE  NOT AVBL

$$
WYZ002>013-054>058-071-098>099-252300-
NORTHERN WYOMING

CITY           SKY/WX    TMP DP  RH WIND       PRES   REMARKS
JACKSON        FAIR      59  19  21 W15G22    30.15F
CODY           FAIR      65  19  17 N12       30.02F
GREYBULL       FAIR      62  25  24 CALM      30.00F
WORLAND        FAIR      64  27  24 N13       29.98S
SHERIDAN       FAIR      66  27  23 NW24      29.98R
BUFFALO        FAIR      71  18  13 N26G38    29.97S
GILLETTE       FAIR      71  22  15 SW10      29.91F
HULETT         FAIR      70  28  21 SW12      29.94F
NEWCASTLE      FAIR      68  21  17 SE12G23   29.97F

$$
WYZ014>020-022>026-101>103-252300-
CENTRAL WYOMING

CITY           SKY/WX    TMP DP  RH WIND       PRES   REMARKS
BIG PINEY      FAIR      63   2   8 W18G24    30.17F
PINEDALE       FAIR      57  18  21 S5        30.16F
DUBOIS         FAIR      55   9  15 NW17G32   30.11F
LANDER         FAIR      63  21  20 CALM      30.01F
RIVERTON       FAIR      64  20  18 CALM      30.02F
CASPER         FAIR      68  13  12 SW26G35   30.02F
DOUGLAS        FAIR      72  12  10 W16G22    30.00F

$$
WYZ021-027>030-104>119-252300-
SOUTHERN WYOMING

CITY           SKY/WX    TMP DP  RH WIND       PRES   REMARKS
EVANSTON       FAIR      63  14  15 W20G31    30.21F
KEMMERER       FAIR      61  14  16 W22G29    30.20F
FORT BRIDGER   FAIR      67   7   9 W21G35    30.21F
ROCK SPRINGS   FAIR      63   4   9 W17G26    30.17F
DIXON          FAIR      64  11  12 SW12G23   30.19F
RAWLINS        FAIR      64   9  11 SW22G30   30.14F
SARATOGA       FAIR      63  10  13 W22G30    30.16F
LARAMIE        FAIR      63  13  14 W13       30.12F
CHEYENNE       FAIR      62  27  26 S12G17    30.11F
TORRINGTON     FAIR      69  24  18 VRB6      30.00F
PINE BLUFFS    FAIR      64  23  20 SW10      30.08F

$$




USA.gov is the U.S. government's official web portal to all federal, state and local government web resources and services.